Météo par heure à 2-e Itkulovo

Ce jour, 15 Avril, Jeudi

Heure Température Précipitation Vent Pression Humidité
00:00 +4°C° 0 mm 1 m/s 722 mmHg 73%
01:00 +2°C° 0 mm 0 m/s 722 mmHg 72%
02:00 +2°C° 0 mm 0 m/s 722 mmHg 73%
03:00 +2°C° 0 mm 0 m/s 722 mmHg 73%
04:00 +2°C° 0 mm 0 m/s 722 mmHg 74%
05:00 +3°C° 0 mm 0 m/s 722 mmHg 72%
06:00 +4°C° 0 mm 0 m/s 722 mmHg 70%
07:00 +6°C° 0 mm 0 m/s 722 mmHg 67%
08:00 +9°C° 0 mm 1 m/s 721 mmHg 62%
09:00 +11°C° 0 mm 1 m/s 721 mmHg 56%
10:00 +13°C° 0 mm 1 m/s 721 mmHg 50%
11:00 +14°C° 0 mm 2 m/s 721 mmHg 47%
12:00 +15°C° 0 mm 2 m/s 721 mmHg 44%
13:00 +16°C° 0 mm 2 m/s 720 mmHg 40%
14:00 +16°C° 0 mm 2 m/s 720 mmHg 40%
15:00 +16°C° 0 mm 2 m/s 720 mmHg 40%
16:00 +16°C° 0 mm 2 m/s 719 mmHg 40%
17:00 +14°C° 0 mm 2 m/s 719 mmHg 48%
18:00 +12°C° 0 mm 1 m/s 718 mmHg 56%
19:00 +10°C° 0 mm 1 m/s 718 mmHg 63%
20:00 +9°C° 0 mm 1 m/s 718 mmHg 64%
21:00 +8°C° 0 mm 1 m/s 718 mmHg 65%
22:00 +7°C° 0 mm 0 m/s 718 mmHg 66%
23:00 +6°C° 0 mm 0 m/s 717 mmHg 65%

Demain, 16 Avril, Vendredi

Heure Température Précipitation Vent Pression Humidité
00:00 +6°C° 0 mm 0 m/s 717 mmHg 65%
01:00 +6°C° 0 mm 0 m/s 717 mmHg 65%
02:00 +5°C° 0 mm 0 m/s 717 mmHg 65%
03:00 +5°C° 0 mm 0 m/s 716 mmHg 66%
04:00 +5°C° 0 mm 0 m/s 716 mmHg 66%
05:00 +6°C° 0 mm 0 m/s 716 mmHg 64%
06:00 +6°C° 0 mm 0 m/s 716 mmHg 63%
07:00 +7°C° 0 mm 0 m/s 716 mmHg 61%
08:00 +9°C° 0 mm 0 m/s 716 mmHg 54%
09:00 +12°C° 0 mm 1 m/s 716 mmHg 48%
10:00 +14°C° 0 mm 1 m/s 716 mmHg 41%
11:00 +15°C° 0 mm 1 m/s 716 mmHg 38%
12:00 +16°C° 0 mm 1 m/s 716 mmHg 35%
13:00 +18°C° 0 mm 1 m/s 716 mmHg 32%
14:00 +18°C° 0 mm 1 m/s 716 mmHg 32%
15:00 +18°C° 0 mm 1 m/s 716 mmHg 32%
16:00 +18°C° 0 mm 1 m/s 716 mmHg 31%
17:00 +16°C° 0 mm 2 m/s 716 mmHg 39%
18:00 +14°C° 0 mm 2 m/s 716 mmHg 46%
19:00 +12°C° 0 mm 2 m/s 716 mmHg 53%
20:00 +10°C° 0 mm 2 m/s 716 mmHg 59%
21:00 +9°C° 0 mm 2 m/s 716 mmHg 65%
22:00 +8°C° 0 mm 3 m/s 716 mmHg 71%
23:00 +8°C° 0 mm 3 m/s 716 mmHg 78%

Après-demain, 17 Avril, Samedi

Heure Température Précipitation Vent Pression Humidité
00:00 +7°C° 0 mm 3 m/s 716 mmHg 85%
01:00 +7°C° 0 mm 3 m/s 716 mmHg 92%
02:00 +5°C° 0 mm 3 m/s 716 mmHg 93%
03:00 +6°C° 0 mm 2 m/s 716 mmHg 93%
04:00 +5°C° 0 mm 2 m/s 716 mmHg 94%
05:00 +6°C° 0 mm 2 m/s 716 mmHg 92%
06:00 +6°C° 0 mm 2 m/s 717 mmHg 90%
07:00 +6°C° 0 mm 2 m/s 717 mmHg 88%
08:00 +8°C° 0 mm 2 m/s 717 mmHg 81%
09:00 +9°C° 0 mm 2 m/s 717 mmHg 74%
10:00 +10°C° 0 mm 2 m/s 717 mmHg 67%
11:00 +12°C° 0 mm 2 m/s 716 mmHg 62%
12:00 +13°C° 0 mm 2 m/s 716 mmHg 58%
13:00 +14°C° 0 mm 2 m/s 716 mmHg 54%
14:00 +14°C° 0 mm 2 m/s 716 mmHg 53%
15:00 +13°C° 0 mm 3 m/s 716 mmHg 53%
16:00 +13°C° 0 mm 3 m/s 716 mmHg 53%
17:00 +12°C° 0 mm 3 m/s 716 mmHg 59%
18:00 +12°C° 0 mm 2 m/s 716 mmHg 66%
19:00 +10°C° 0 mm 2 m/s 715 mmHg 73%
20:00 +9°C° 0 mm 2 m/s 715 mmHg 77%
21:00 +9°C° 0 mm 1 m/s 715 mmHg 82%
22:00 +8°C° 0 mm 1 m/s 715 mmHg 87%
23:00 +7°C° 0 mm 1 m/s 715 mmHg 88%

18 Avril, Dimanche

Heure Température Précipitation Vent Pression Humidité
00:00 +7°C° 0 mm 1 m/s 715 mmHg 90%
01:00 +5°C° 0 mm 0 m/s 715 mmHg 92%
02:00 +5°C° 0 mm 0 m/s 714 mmHg 92%
03:00 +5°C° 0 mm 0 m/s 714 mmHg 92%
04:00 +5°C° 0 mm 0 m/s 714 mmHg 92%
05:00 +5°C° 0 mm 0 m/s 714 mmHg 90%
06:00 +7°C° 0 mm 1 m/s 714 mmHg 89%
07:00 +7°C° 0 mm 1 m/s 714 mmHg 87%
08:00 +8°C° 0 mm 1 m/s 714 mmHg 82%
09:00 +8°C° 0 mm 2 m/s 714 mmHg 77%
10:00 +8°C° 0 mm 2 m/s 714 mmHg 72%
11:00 +9°C° 0 mm 2 m/s 714 mmHg 65%
12:00 +9°C° 0 mm 2 m/s 714 mmHg 58%
13:00 +10°C° 0 mm 3 m/s 714 mmHg 52%
14:00 +10°C° 0 mm 3 m/s 714 mmHg 48%
15:00 +10°C° 0 mm 3 m/s 714 mmHg 45%
16:00 +11°C° 0 mm 4 m/s 714 mmHg 42%
17:00 +7°C° 0.1 mm 5 m/s 714 mmHg 58%
18:00 +5°C° 0.1 mm 5 m/s 715 mmHg 73%
19:00 +1°C° 0.1 mm 6 m/s 716 mmHg 89%
20:00 -1°C° 0 mm 7 m/s 716 mmHg 79%
21:00 -2°C° 0 mm 7 m/s 717 mmHg 69%
22:00 -2°C° 0 mm 7 m/s 717 mmHg 59%
23:00 -3°C° 0 mm 7 m/s 718 mmHg 57%

19 Avril, Lundi

Heure Température Précipitation Vent Pression Humidité
00:00 -4°C° 0 mm 7 m/s 718 mmHg 56%
01:00 -6°C° 0 mm 7 m/s 719 mmHg 55%
02:00 -5°C° 0 mm 6 m/s 719 mmHg 55%
03:00 -6°C° 0 mm 6 m/s 720 mmHg 54%
04:00 -6°C° 0 mm 6 m/s 720 mmHg 54%
05:00 -6°C° 0 mm 6 m/s 721 mmHg 50%
06:00 -6°C° 0 mm 6 m/s 721 mmHg 45%
07:00 -7°C° 0 mm 7 m/s 721 mmHg 41%
08:00 -6°C° 0 mm 7 m/s 722 mmHg 38%
09:00 -6°C° 0 mm 7 m/s 722 mmHg 34%
10:00 -4°C° 0 mm 7 m/s 722 mmHg 31%
11:00 -3°C° 0 mm 7 m/s 722 mmHg 30%
12:00 -3°C° 0 mm 7 m/s 722 mmHg 29%
13:00 -2°C° 0 mm 7 m/s 722 mmHg 29%
14:00 -2°C° 0 mm 7 m/s 723 mmHg 29%
15:00 -2°C° 0 mm 6 m/s 723 mmHg 30%
16:00 -2°C° 0 mm 6 m/s 723 mmHg 30%
17:00 -3°C° 0 mm 6 m/s 723 mmHg 33%
18:00 -4°C° 0 mm 5 m/s 723 mmHg 36%
19:00 -5°C° 0 mm 5 m/s 724 mmHg 39%
20:00 -4°C° 0 mm 4 m/s 724 mmHg 41%
21:00 -5°C° 0 mm 4 m/s 724 mmHg 43%
22:00 -7°C° 0 mm 4 m/s 725 mmHg 45%
23:00 -6°C° 0 mm 3 m/s 725 mmHg 45%

20 Avril, Mardi

Heure Température Précipitation Vent Pression Humidité
00:00 -6°C° 0 mm 3 m/s 725 mmHg 46%
01:00 -6°C° 0 mm 3 m/s 725 mmHg 46%
02:00 -5°C° 0 mm 2 m/s 726 mmHg 47%
03:00 -6°C° 0 mm 2 m/s 726 mmHg 48%
04:00 -4°C° 0 mm 1 m/s 726 mmHg 49%
05:00 -5°C° 0 mm 2 m/s 727 mmHg 45%
06:00 -5°C° 0 mm 2 m/s 727 mmHg 41%
07:00 -4°C° 0 mm 2 m/s 727 mmHg 38%
08:00 -4°C° 0 mm 3 m/s 727 mmHg 34%
09:00 -2°C° 0 mm 3 m/s 727 mmHg 30%
10:00 0°C° 0 mm 3 m/s 727 mmHg 26%
11:00 +1°C° 0 mm 3 m/s 727 mmHg 26%
12:00 +2°C° 0 mm 3 m/s 727 mmHg 26%
13:00 +3°C° 0 mm 3 m/s 727 mmHg 26%
14:00 +3°C° 0 mm 3 m/s 726 mmHg 27%
15:00 +3°C° 0 mm 3 m/s 726 mmHg 27%
16:00 +4°C° 0 mm 3 m/s 726 mmHg 28%
17:00 +2°C° 0 mm 3 m/s 726 mmHg 36%
18:00 +1°C° 0 mm 3 m/s 726 mmHg 44%
19:00 +1°C° 0 mm 2 m/s 726 mmHg 51%
20:00 -1°C° 0 mm 2 m/s 726 mmHg 54%
21:00 -2°C° 0 mm 2 m/s 726 mmHg 57%
22:00 -3°C° 0 mm 2 m/s 727 mmHg 60%
23:00 -3°C° 0 mm 2 m/s 727 mmHg 59%
Voir plus

Nous avons besoin de votre consentement

Meteoprog et ses fournisseurs de services peuvent stocker et accéder à des données personnelles telles que des cookies, des identifiants d'appareils ou d'autres technologies similaires sur votre appareil et traiter ces données pour personnaliser le contenu et les publicités, ainsi que pour fournir des fonctionnalités de médias sociaux et analyser le trafic.

  • Stocker et/ou accéder à des informations sur votre appareil

    Des cookies, des identifiants d'appareils ou d'autres informations peuvent être stockés ou accessibles sur votre appareil aux fins indiquées ci-dessus.

  • Annonces et contenus personnalisés, mesure des annonces et des contenus, connaissance de l'audience et développement de produits

    Les annonces et le contenu peuvent être personnalisés en fonction d'un profil. D'autres données peuvent être ajoutées pour mieux personnaliser les annonces et le contenu. Les performances des publicités et du contenu peuvent être mesurées. Il est possible d'obtenir des informations sur le public qui a vu les publicités et le contenu. Ces données peuvent être utilisées pour développer ou améliorer l'expérience de l'utilisateur, les systèmes et les logiciels.

En cliquant sur "J'accepte", vous autorisez l'utilisation de cookies, des identifiants d'appareils, des balises web ou d'autres technologies similaires. Vos paramètres peuvent être modifiés dans le navigateur de votre appareil.

Dans certains cas, des intérêts légitimes peuvent être invoqués plutôt qu'un consentement. Vous pouvez en savoir plus à ce sujet dans notre Politique de confidentialité et de cookies.